Time,TemperatureF,DewpointF,PressureIn,WindDirection,WindDirectionDegrees,WindSpeedMPH,WindSpeedGustMPH,Humidity,HourlyPrecipIn,Conditions,Clouds,dailyrainin,SoftwareType,DateUTC
2013-09-14 00:01:00,75.0,72.5,29.82,North,5,0.0,19.0,92,0.00,,---,0.00,VWS V12.08,2013-09-14 04:01:00,
2013-09-14 00:02:00,75.0,72.5,29.83,North,5,0.0,19.0,92,0.00,,---,0.00,VWS V12.08,2013-09-14 04:02:00,
2013-09-14 00:07:00,74.9,72.4,29.83,North,5,0.0,19.0,92,0.00,,---,0.00,VWS V12.08,2013-09-14 04:07:00,
2013-09-14 00:12:00,74.8,72.6,29.83,North,5,0.0,19.0,93,0.00,,---,0.00,VWS V12.08,2013-09-14 04:12:00,
2013-09-14 00:17:00,74.8,72.6,29.83,North,5,0.0,19.0,93,0.00,,---,0.00,VWS V12.08,2013-09-14 04:17:00,
2013-09-14 00:22:00,74.8,72.6,29.83,North,5,0.0,19.0,93,0.00,,---,0.00,VWS V12.08,2013-09-14 04:22:00,
2013-09-14 00:27:00,74.8,72.6,29.83,North,5,0.0,19.0,93,0.00,,---,0.00,VWS V12.08,2013-09-14 04:27:00,
2013-09-14 00:32:00,74.6,72.4,29.83,North,5,0.0,19.0,93,0.00,,---,0.00,VWS V12.08,2013-09-14 04:32:00,
2013-09-14 00:37:00,74.5,72.3,29.83,North,5,0.0,19.0,93,0.00,,---,0.00,VWS V12.08,2013-09-14 04:37:00,
2013-09-14 00:42:00,74.4,72.2,29.83,North,5,0.0,19.0,93,0.00,,---,0.00,VWS V12.08,2013-09-14 04:42:00,
2013-09-14 00:47:00,74.4,72.2,29.83,North,5,0.0,19.0,93,0.00,,---,0.00,VWS V12.08,2013-09-14 04:47:00,
2013-09-14 00:52:00,74.4,72.2,29.82,North,5,0.0,19.0,93,0.00,,---,0.00,VWS V12.08,2013-09-14 04:52:00,
2013-09-14 00:57:00,74.3,72.5,29.82,North,5,0.0,19.0,94,0.00,,---,0.00,VWS V12.08,2013-09-14 04:57:00,
2013-09-14 01:02:00,74.2,72.4,29.83,North,5,0.0,19.0,94,0.00,,---,0.00,VWS V12.08,2013-09-14 05:02:00,
2013-09-14 01:07:00,74.1,72.3,29.83,North,5,0.0,19.0,94,0.00,,---,0.00,VWS V12.08,2013-09-14 05:07:00,
2013-09-14 01:12:00,74.2,72.4,29.82,North,5,0.0,19.0,94,0.00,,---,0.00,VWS V12.08,2013-09-14 05:12:00,
2013-09-14 01:17:00,74.2,72.4,29.82,North,5,0.0,19.0,94,0.00,,---,0.00,VWS V12.08,2013-09-14 05:17:00,
2013-09-14 01:22:00,74.2,72.4,29.82,North,5,0.0,19.0,94,0.00,,---,0.00,VWS V12.08,2013-09-14 05:22:00,
2013-09-14 01:27:00,74.1,72.3,29.82,North,5,0.0,19.0,94,0.00,,---,0.00,VWS V12.08,2013-09-14 05:27:00,
2013-09-14 01:32:00,74.0,72.2,29.82,North,5,0.0,19.0,94,0.00,,---,0.00,VWS V12.08,2013-09-14 05:32:00,
2013-09-14 01:37:00,73.9,72.1,29.82,North,5,0.0,19.0,94,0.00,,---,0.00,VWS V12.08,2013-09-14 05:37:00,
2013-09-14 01:42:00,73.9,72.1,29.82,North,5,0.0,19.0,94,0.00,,---,0.00,VWS V12.08,2013-09-14 05:42:00,
2013-09-14 01:47:00,74.0,72.5,29.82,North,5,0.0,19.0,95,0.00,,---,0.00,VWS V12.08,2013-09-14 05:47:00,
2013-09-14 01:52:00,74.0,72.5,29.82,North,5,0.0,19.0,95,0.00,,---,0.00,VWS V12.08,2013-09-14 05:52:00,
2013-09-14 01:57:00,73.9,72.1,29.82,North,5,0.0,19.0,94,0.00,,---,0.00,VWS V12.08,2013-09-14 05:57:00,
2013-09-14 02:02:00,73.9,72.1,29.82,North,5,0.0,19.0,94,0.00,,---,0.00,VWS V12.08,2013-09-14 06:02:00,
2013-09-14 02:07:00,73.9,72.4,29.82,North,5,0.0,19.0,95,0.00,,---,0.00,VWS V12.08,2013-09-14 06:07:00,
2013-09-14 02:12:00,73.9,72.4,29.82,North,5,0.0,19.0,95,0.00,,---,0.00,VWS V12.08,2013-09-14 06:12:00,
2013-09-14 02:17:00,73.9,72.4,29.82,North,5,0.0,19.0,95,0.00,,---,0.00,VWS V12.08,2013-09-14 06:17:00,
2013-09-14 02:22:00,73.8,72.3,29.82,North,5,0.0,19.0,95,0.00,,---,0.00,VWS V12.08,2013-09-14 06:22:00,
2013-09-14 02:27:00,73.8,72.3,29.82,North,5,0.0,19.0,95,0.00,,---,0.00,VWS V12.08,2013-09-14 06:27:00,
2013-09-14 02:32:00,73.7,72.2,29.82,North,5,0.0,19.0,95,0.00,,---,0.00,VWS V12.08,2013-09-14 06:32:00,
2013-09-14 02:37:00,73.7,72.2,29.81,North,5,0.0,19.0,95,0.00,,---,0.00,VWS V12.08,2013-09-14 06:37:00,
2013-09-14 02:42:00,73.6,72.1,29.81,North,5,0.0,19.0,95,0.00,,---,0.00,VWS V12.08,2013-09-14 06:42:00,
2013-09-14 02:47:00,73.7,72.2,29.81,North,5,0.0,19.0,95,0.00,,---,0.00,VWS V12.08,2013-09-14 06:47:00,
2013-09-14 02:52:00,73.8,72.3,29.81,North,5,0.0,19.0,95,0.00,,---,0.00,VWS V12.08,2013-09-14 06:52:00,
2013-09-14 02:57:00,73.8,72.3,29.82,North,5,0.0,19.0,95,0.00,,---,0.00,VWS V12.08,2013-09-14 06:57:00,
2013-09-14 03:02:00,73.7,72.2,29.82,North,5,0.0,19.0,95,0.00,,---,0.00,VWS V12.08,2013-09-14 07:02:00,
2013-09-14 03:07:00,73.9,72.7,29.82,North,5,0.0,19.0,96,0.00,,---,0.00,VWS V12.08,2013-09-14 07:07:00,
2013-09-14 03:12:00,74.1,72.9,29.82,North,5,0.0,19.0,96,0.00,,---,0.00,VWS V12.08,2013-09-14 07:12:00,
2013-09-14 03:17:00,74.2,73.0,29.81,North,5,0.0,19.0,96,0.00,,---,0.00,VWS V12.08,2013-09-14 07:17:00,
2013-09-14 03:22:00,74.2,72.7,29.81,North,5,0.0,19.0,95,0.00,,---,0.00,VWS V12.08,2013-09-14 07:22:00,
2013-09-14 03:27:00,74.0,72.5,29.81,North,5,0.0,19.0,95,0.00,,---,0.00,VWS V12.08,2013-09-14 07:27:00,
2013-09-14 03:32:00,73.9,72.4,29.81,North,5,0.0,19.0,95,0.00,,---,0.00,VWS V12.08,2013-09-14 07:32:00,
2013-09-14 03:37:00,73.8,72.6,29.81,North,5,0.0,19.0,96,0.00,,---,0.00,VWS V12.08,2013-09-14 07:37:00,
2013-09-14 03:42:00,73.8,72.6,29.81,North,5,0.0,19.0,96,0.00,,---,0.00,VWS V12.08,2013-09-14 07:42:00,
2013-09-14 03:47:00,73.7,72.2,29.81,North,5,0.0,19.0,95,0.00,,---,0.00,VWS V12.08,2013-09-14 07:47:00,
2013-09-14 03:52:00,73.5,72.0,29.81,North,5,0.0,19.0,95,0.00,,---,0.00,VWS V12.08,2013-09-14 07:52:00,
2013-09-14 03:57:00,73.4,71.9,29.81,North,5,0.0,19.0,95,0.00,,---,0.00,VWS V12.08,2013-09-14 07:57:00,
2013-09-14 04:02:00,73.4,72.2,29.81,North,5,0.0,19.0,96,0.00,,---,0.00,VWS V12.08,2013-09-14 08:02:00,
2013-09-14 04:07:00,73.3,71.8,29.81,North,5,0.0,19.0,95,0.00,,---,0.00,VWS V12.08,2013-09-14 08:07:00,
2013-09-14 04:12:00,73.2,71.7,29.81,North,5,0.0,19.0,95,0.00,,---,0.00,VWS V12.08,2013-09-14 08:12:00,
2013-09-14 04:17:00,73.0,71.5,29.81,North,5,0.0,19.0,95,0.00,,---,0.00,VWS V12.08,2013-09-14 08:17:00,
2013-09-14 04:22:00,72.9,71.7,29.81,North,5,0.0,19.0,96,0.00,,---,0.00,VWS V12.08,2013-09-14 08:22:00,
2013-09-14 04:27:00,73.0,71.8,29.80,North,5,0.0,19.0,96,0.00,,---,0.00,VWS V12.08,2013-09-14 08:27:00,
2013-09-14 04:32:00,73.0,71.8,29.80,North,5,0.0,19.0,96,0.00,,---,0.00,VWS V12.08,2013-09-14 08:32:00,
2013-09-14 04:37:00,72.8,71.3,29.81,North,5,0.0,19.0,95,0.00,,---,0.00,VWS V12.08,2013-09-14 08:37:00,
2013-09-14 04:42:00,72.7,71.2,29.81,North,5,0.0,19.0,95,0.00,,---,0.00,VWS V12.08,2013-09-14 08:42:00,
2013-09-14 04:47:00,72.6,71.1,29.81,North,5,0.0,19.0,95,0.00,,---,0.00,VWS V12.08,2013-09-14 08:47:00,
2013-09-14 04:52:00,72.5,71.3,29.81,North,5,0.0,19.0,96,0.00,,---,0.00,VWS V12.08,2013-09-14 08:52:00,
2013-09-14 04:57:00,72.4,71.2,29.81,North,5,0.0,19.0,96,0.00,,---,0.00,VWS V12.08,2013-09-14 08:57:00,
2013-09-14 05:02:00,72.3,71.1,29.81,North,5,0.0,19.0,96,0.00,,---,0.00,VWS V12.08,2013-09-14 09:02:00,
2013-09-14 05:07:00,72.2,71.0,29.81,North,5,0.0,19.0,96,0.00,,---,0.00,VWS V12.08,2013-09-14 09:07:00,
2013-09-14 05:12:00,72.2,70.7,29.81,North,5,0.0,19.0,95,0.00,,---,0.00,VWS V12.08,2013-09-14 09:12:00,
2013-09-14 05:17:00,72.1,70.9,29.81,North,5,0.0,19.0,96,0.00,,---,0.00,VWS V12.08,2013-09-14 09:17:00,
2013-09-14 05:22:00,72.2,71.0,29.81,North,5,0.0,19.0,96,0.00,,---,0.00,VWS V12.08,2013-09-14 09:22:00,
2013-09-14 05:27:00,72.2,71.0,29.81,North,5,0.0,19.0,96,0.00,,---,0.00,VWS V12.08,2013-09-14 09:27:00,
2013-09-14 05:32:00,72.1,70.9,29.81,North,5,0.0,19.0,96,0.00,,---,0.00,VWS V12.08,2013-09-14 09:32:00,
2013-09-14 05:37:00,72.0,70.8,29.81,North,5,0.0,19.0,96,0.00,,---,0.00,VWS V12.08,2013-09-14 09:37:00,
2013-09-14 05:42:00,71.9,70.7,29.81,North,5,0.0,19.0,96,0.00,,---,0.00,VWS V12.08,2013-09-14 09:42:00,
2013-09-14 05:47:00,71.9,70.7,29.82,North,5,0.0,19.0,96,0.00,,---,0.00,VWS V12.08,2013-09-14 09:47:00,
2013-09-14 05:52:00,71.9,70.7,29.82,North,5,0.0,19.0,96,0.00,,---,0.00,VWS V12.08,2013-09-14 09:52:00,
2013-09-14 05:57:00,71.7,70.5,29.82,North,5,0.0,19.0,96,0.00,,---,0.00,VWS V12.08,2013-09-14 09:57:00,
2013-09-14 06:02:00,71.6,70.4,29.82,North,5,0.0,19.0,96,0.00,,---,0.00,VWS V12.08,2013-09-14 10:02:00,
2013-09-14 06:07:00,71.3,69.8,29.82,North,5,0.0,19.0,95,0.00,,---,0.00,VWS V12.08,2013-09-14 10:07:00,
2013-09-14 06:12:00,71.2,70.0,29.82,North,5,0.0,19.0,96,0.00,,---,0.00,VWS V12.08,2013-09-14 10:12:00,
2013-09-14 06:17:00,71.2,70.0,29.82,North,5,0.0,19.0,96,0.00,,---,0.00,VWS V12.08,2013-09-14 10:17:00,
2013-09-14 06:22:00,71.2,70.0,29.82,North,5,0.0,19.0,96,0.00,,---,0.00,VWS V12.08,2013-09-14 10:22:00,
2013-09-14 06:27:00,71.1,69.9,29.82,North,5,0.0,19.0,96,0.00,,---,0.00,VWS V12.08,2013-09-14 10:27:00,
2013-09-14 06:32:00,71.1,69.9,29.82,North,5,0.0,19.0,96,0.00,,---,0.00,VWS V12.08,2013-09-14 10:32:00,
2013-09-14 06:37:00,71.1,69.9,29.82,North,5,0.0,19.0,96,0.00,,---,0.00,VWS V12.08,2013-09-14 10:37:00,
2013-09-14 06:42:00,70.9,69.7,29.82,North,5,0.0,19.0,96,0.00,,---,0.00,VWS V12.08,2013-09-14 10:42:00,
2013-09-14 06:47:00,71.0,69.8,29.82,North,5,0.0,19.0,96,0.00,,---,0.00,VWS V12.08,2013-09-14 10:47:00,
2013-09-14 06:52:00,70.9,69.7,29.83,North,5,0.0,19.0,96,0.00,,---,0.00,VWS V12.08,2013-09-14 10:52:00,
2013-09-14 06:57:00,70.6,69.4,29.83,North,5,0.0,19.0,96,0.00,,---,0.00,VWS V12.08,2013-09-14 10:57:00,
2013-09-14 07:02:00,70.4,69.2,29.83,North,5,0.0,19.0,96,0.00,,---,0.00,VWS V12.08,2013-09-14 11:02:00,
2013-09-14 07:07:00,70.4,69.2,29.84,North,5,0.0,19.0,96,0.00,,---,0.00,VWS V12.08,2013-09-14 11:07:00,
2013-09-14 07:12:00,70.5,69.3,29.84,North,5,0.0,19.0,96,0.00,,---,0.00,VWS V12.08,2013-09-14 11:12:00,
2013-09-14 07:17:00,70.5,69.3,29.84,North,5,0.0,19.0,96,0.00,,---,0.00,VWS V12.08,2013-09-14 11:17:00,
2013-09-14 07:22:00,70.5,69.3,29.84,North,5,0.0,19.0,96,0.00,,---,0.00,VWS V12.08,2013-09-14 11:22:00,
2013-09-14 07:27:00,70.5,69.3,29.84,North,5,0.0,19.0,96,0.00,,---,0.00,VWS V12.08,2013-09-14 11:27:00,
2013-09-14 07:32:00,70.5,69.3,29.85,North,5,0.0,19.0,96,0.00,,---,0.00,VWS V12.08,2013-09-14 11:32:00,
2013-09-14 07:37:00,70.4,69.2,29.85,North,5,0.0,19.0,96,0.00,,---,0.00,VWS V12.08,2013-09-14 11:37:00,
2013-09-14 07:42:00,70.4,69.2,29.85,North,5,0.0,19.0,96,0.00,,---,0.00,VWS V12.08,2013-09-14 11:42:00,
2013-09-14 07:47:00,70.4,69.5,29.85,North,5,0.0,19.0,97,0.00,,---,0.00,VWS V12.08,2013-09-14 11:47:00,
2013-09-14 07:52:00,70.7,69.8,29.85,North,5,0.0,19.0,97,0.00,,---,0.00,VWS V12.08,2013-09-14 11:52:00,
2013-09-14 07:57:00,71.1,70.2,29.85,North,5,0.0,19.0,97,0.00,,---,0.00,VWS V12.08,2013-09-14 11:57:00,
2013-09-14 08:02:00,71.8,71.2,29.85,North,5,0.0,19.0,98,0.00,,---,0.00,VWS V12.08,2013-09-14 12:02:00,
2013-09-14 08:07:00,72.4,71.8,29.86,North,5,0.0,19.0,98,0.00,,---,0.00,VWS V12.08,2013-09-14 12:07:00,
2013-09-14 08:12:00,73.0,72.4,29.86,North,5,0.0,19.0,98,0.00,,---,0.00,VWS V12.08,2013-09-14 12:12:00,
2013-09-14 08:17:00,73.5,72.9,29.86,North,5,0.0,19.0,98,0.00,,---,0.00,VWS V12.08,2013-09-14 12:17:00,
2013-09-14 08:22:00,74.0,73.4,29.87,North,5,0.0,19.0,98,0.00,,---,0.00,VWS V12.08,2013-09-14 12:22:00,
2013-09-14 08:27:00,74.5,73.9,29.87,North,5,0.0,19.0,98,0.00,,---,0.00,VWS V12.08,2013-09-14 12:27:00,
2013-09-14 08:32:00,75.1,74.5,29.87,North,5,0.0,19.0,98,0.00,,---,0.00,VWS V12.08,2013-09-14 12:32:00,
2013-09-14 08:37:00,75.7,75.1,29.87,North,5,0.0,19.0,98,0.00,,---,0.00,VWS V12.08,2013-09-14 12:37:00,
2013-09-14 08:42:00,76.2,75.6,29.87,North,5,0.0,19.0,98,0.00,,---,0.00,VWS V12.08,2013-09-14 12:42:00,
2013-09-14 08:47:00,76.7,76.1,29.87,North,5,0.0,19.0,98,0.00,,---,0.00,VWS V12.08,2013-09-14 12:47:00,
2013-09-14 08:52:00,77.5,76.9,29.88,North,5,0.0,19.0,98,0.00,,---,0.00,VWS V12.08,2013-09-14 12:52:00,
2013-09-14 08:57:00,78.3,77.7,29.88,North,5,0.0,19.0,98,0.00,,---,0.00,VWS V12.08,2013-09-14 12:57:00,
2013-09-14 09:02:00,78.5,77.3,29.88,North,5,0.0,19.0,96,0.00,,---,0.00,VWS V12.08,2013-09-14 13:02:00,
2013-09-14 09:07:00,78.9,77.7,29.88,North,5,0.0,19.0,96,0.00,,---,0.00,VWS V12.08,2013-09-14 13:07:00,
2013-09-14 09:12:00,79.0,77.1,29.88,North,5,0.0,19.0,94,0.00,,---,0.00,VWS V12.08,2013-09-14 13:12:00,
2013-09-14 09:17:00,79.4,76.6,29.88,North,5,0.0,19.0,91,0.00,,---,0.00,VWS V12.08,2013-09-14 13:17:00,
2013-09-14 09:22:00,79.8,76.6,29.88,North,5,0.0,19.0,90,0.00,,---,0.00,VWS V12.08,2013-09-14 13:22:00,
2013-09-14 09:27:00,80.3,76.8,29.88,North,5,0.0,19.0,89,0.00,,---,0.00,VWS V12.08,2013-09-14 13:27:00,
2013-09-14 09:32:00,80.9,77.0,29.88,North,5,0.0,19.0,88,0.00,,---,0.00,VWS V12.08,2013-09-14 13:32:00,
2013-09-14 09:37:00,81.2,76.6,29.88,North,5,0.0,19.0,86,0.00,,---,0.00,VWS V12.08,2013-09-14 13:37:00,
2013-09-14 09:42:00,81.5,76.9,29.88,North,5,0.0,19.0,86,0.00,,---,0.00,VWS V12.08,2013-09-14 13:42:00,
2013-09-14 09:47:00,82.0,77.1,29.89,North,5,0.0,19.0,85,0.00,,---,0.00,VWS V12.08,2013-09-14 13:47:00,
2013-09-14 09:52:00,82.3,77.0,29.89,North,5,0.0,19.0,84,0.00,,---,0.00,VWS V12.08,2013-09-14 13:52:00,
2013-09-14 09:57:00,82.5,76.8,29.89,North,5,0.0,19.0,83,0.00,,---,0.00,VWS V12.08,2013-09-14 13:57:00,
2013-09-14 10:02:00,83.0,76.9,29.89,North,5,0.0,19.0,82,0.00,,---,0.00,VWS V12.08,2013-09-14 14:02:00,
2013-09-14 10:07:00,83.3,76.9,29.89,North,5,0.0,19.0,81,0.00,,---,0.00,VWS V12.08,2013-09-14 14:07:00,
2013-09-14 10:12:00,83.5,76.3,29.89,North,5,0.0,19.0,79,0.00,,---,0.00,VWS V12.08,2013-09-14 14:12:00,
2013-09-14 10:17:00,83.5,75.5,29.90,North,5,0.0,19.0,77,0.00,,---,0.00,VWS V12.08,2013-09-14 14:17:00,
2013-09-14 10:22:00,84.1,76.5,29.90,North,5,0.0,19.0,78,0.00,,---,0.00,VWS V12.08,2013-09-14 14:22:00,
2013-09-14 10:27:00,84.6,77.0,29.90,North,5,0.0,19.0,78,0.00,,---,0.00,VWS V12.08,2013-09-14 14:27:00,
2013-09-14 10:32:00,85.0,77.0,29.90,North,5,0.0,19.0,77,0.00,,---,0.00,VWS V12.08,2013-09-14 14:32:00,
2013-09-14 10:37:00,84.9,75.3,29.90,North,5,0.0,19.0,73,0.00,,---,0.00,VWS V12.08,2013-09-14 14:37:00,
2013-09-14 10:42:00,85.1,75.1,29.90,North,5,0.0,19.0,72,0.00,,---,0.00,VWS V12.08,2013-09-14 14:42:00,
2013-09-14 10:47:00,85.3,75.2,29.90,North,5,0.0,19.0,72,0.00,,---,0.00,VWS V12.08,2013-09-14 14:47:00,
2013-09-14 10:52:00,85.6,76.4,29.90,North,5,0.0,19.0,74,0.00,,---,0.00,VWS V12.08,2013-09-14 14:52:00,
2013-09-14 10:57:00,86.1,75.6,29.90,North,5,0.0,19.0,71,0.00,,---,0.00,VWS V12.08,2013-09-14 14:57:00,
2013-09-14 11:02:00,86.4,76.3,29.90,North,5,4.0,19.0,72,0.00,,---,0.00,VWS V12.08,2013-09-14 15:02:00,
2013-09-14 11:07:00,86.5,75.6,29.90,North,5,0.0,19.0,70,0.00,,---,0.00,VWS V12.08,2013-09-14 15:07:00,
2013-09-14 11:12:00,86.6,75.7,29.90,North,5,4.0,19.0,70,0.00,,---,0.00,VWS V12.08,2013-09-14 15:12:00,
2013-09-14 11:17:00,86.6,75.7,29.90,North,5,0.0,19.0,70,0.00,,---,0.00,VWS V12.08,2013-09-14 15:17:00,
2013-09-14 11:22:00,86.8,75.4,29.90,North,5,0.0,19.0,69,0.00,,---,0.00,VWS V12.08,2013-09-14 15:22:00,
2013-09-14 11:27:00,87.3,76.3,29.90,North,5,0.0,19.0,70,0.00,,---,0.00,VWS V12.08,2013-09-14 15:27:00,
2013-09-14 11:32:00,87.9,75.6,29.90,North,5,0.0,19.0,67,0.00,,---,0.00,VWS V12.08,2013-09-14 15:32:00,
2013-09-14 11:37:00,88.1,76.2,29.90,North,5,4.0,19.0,68,0.00,,---,0.00,VWS V12.08,2013-09-14 15:37:00,
2013-09-14 11:42:00,87.6,74.8,29.90,North,5,0.0,19.0,66,0.00,,---,0.00,VWS V12.08,2013-09-14 15:42:00,
2013-09-14 11:47:00,87.7,75.4,29.90,North,5,0.0,19.0,67,0.00,,---,0.00,VWS V12.08,2013-09-14 15:47:00,
2013-09-14 11:52:00,88.2,75.9,29.90,North,5,0.0,19.0,67,0.00,,---,0.00,VWS V12.08,2013-09-14 15:52:00,
2013-09-14 11:57:00,88.4,75.6,29.90,North,5,0.0,19.0,66,0.00,,---,0.00,VWS V12.08,2013-09-14 15:57:00,
2013-09-14 12:02:00,88.9,77.4,29.90,North,5,3.0,19.0,69,0.00,,---,0.00,VWS V12.08,2013-09-14 16:02:00,
2013-09-14 12:07:00,88.7,76.8,29.90,North,5,0.0,19.0,68,0.00,,---,0.00,VWS V12.08,2013-09-14 16:07:00,
2013-09-14 12:12:00,88.5,77.0,29.90,North,5,0.0,19.0,69,0.00,,---,0.00,VWS V12.08,2013-09-14 16:12:00,
2013-09-14 12:17:00,88.1,75.8,29.90,North,5,0.0,19.0,67,0.00,,---,0.00,VWS V12.08,2013-09-14 16:17:00,
2013-09-14 12:22:00,88.1,77.1,29.90,North,5,0.0,19.0,70,0.00,,---,0.00,VWS V12.08,2013-09-14 16:22:00,
2013-09-14 12:27:00,88.0,76.1,29.90,North,5,0.0,19.0,68,0.00,,---,0.00,VWS V12.08,2013-09-14 16:27:00,
2013-09-14 12:32:00,88.2,75.9,29.89,North,5,0.0,19.0,67,0.00,,---,0.00,VWS V12.08,2013-09-14 16:32:00,
2013-09-14 12:37:00,88.3,75.5,29.90,North,5,0.0,19.0,66,0.00,,---,0.00,VWS V12.08,2013-09-14 16:37:00,
2013-09-14 12:42:00,88.5,76.2,29.90,North,5,1.0,19.0,67,0.00,,---,0.00,VWS V12.08,2013-09-14 16:42:00,
2013-09-14 12:47:00,89.2,77.3,29.90,North,5,1.0,19.0,68,0.00,,---,0.00,VWS V12.08,2013-09-14 16:47:00,
2013-09-14 12:52:00,89.8,75.5,29.90,North,5,3.0,19.0,63,0.00,,---,0.00,VWS V12.08,2013-09-14 16:52:00,
2013-09-14 12:57:00,90.5,77.6,29.89,North,5,0.0,19.0,66,0.00,,---,0.00,VWS V12.08,2013-09-14 16:57:00,
2013-09-14 13:02:00,90.7,76.4,29.90,NW,324,0.0,19.0,63,0.00,,---,0.00,VWS V12.08,2013-09-14 17:02:00,
2013-09-14 13:07:00,90.9,77.0,29.90,NW,324,0.0,19.0,64,0.00,,---,0.00,VWS V12.08,2013-09-14 17:07:00,
2013-09-14 13:12:00,90.8,76.0,29.90,NW,323,0.0,19.0,62,0.00,,---,0.00,VWS V12.08,2013-09-14 17:12:00,
2013-09-14 13:17:00,90.8,76.5,29.89,NW,324,0.0,19.0,63,0.00,,---,0.00,VWS V12.08,2013-09-14 17:17:00,
2013-09-14 13:22:00,90.7,77.3,29.89,NW,324,2.0,19.0,65,0.00,,---,0.00,VWS V12.08,2013-09-14 17:22:00,
2013-09-14 13:27:00,90.7,76.4,29.89,NW,321,1.0,19.0,63,0.00,,---,0.00,VWS V12.08,2013-09-14 17:27:00,
2013-09-14 13:32:00,90.9,76.1,29.89,NW,320,2.0,19.0,62,0.00,,---,0.00,VWS V12.08,2013-09-14 17:32:00,
2013-09-14 13:37:00,90.7,74.9,29.88,NW,320,0.0,19.0,60,0.00,,---,0.00,VWS V12.08,2013-09-14 17:37:00,
2013-09-14 13:42:00,90.8,76.5,29.88,NW,320,5.0,19.0,63,0.00,,---,0.00,VWS V12.08,2013-09-14 17:42:00,
2013-09-14 13:47:00,90.8,75.5,29.88,NW,320,0.0,19.0,61,0.00,,---,0.00,VWS V12.08,2013-09-14 17:47:00,
2013-09-14 13:52:00,91.1,75.8,29.88,WNW,284,0.0,19.0,61,0.00,,---,0.00,VWS V12.08,2013-09-14 17:52:00,
2013-09-14 13:57:00,91.2,75.4,29.88,WSW,240,2.0,19.0,60,0.00,,---,0.00,VWS V12.08,2013-09-14 17:57:00,
2013-09-14 14:02:00,91.4,75.6,29.88,SW,232,3.0,19.0,60,0.00,,---,0.00,VWS V12.08,2013-09-14 18:02:00,
2013-09-14 14:07:00,91.5,75.7,29.88,SW,232,1.0,19.0,60,0.00,,---,0.00,VWS V12.08,2013-09-14 18:07:00,
2013-09-14 14:12:00,91.9,75.0,29.88,SW,232,0.0,19.0,58,0.00,,---,0.00,VWS V12.08,2013-09-14 18:12:00,
2013-09-14 14:17:00,92.2,75.3,29.87,SW,232,3.0,19.0,58,0.00,,---,0.00,VWS V12.08,2013-09-14 18:17:00,
2013-09-14 14:22:00,91.9,74.0,29.87,SW,232,0.0,19.0,56,0.00,,---,0.00,VWS V12.08,2013-09-14 18:22:00,
2013-09-14 14:27:00,91.9,75.0,29.87,WSW,237,4.0,19.0,58,0.00,,---,0.00,VWS V12.08,2013-09-14 18:27:00,
2013-09-14 14:32:00,92.0,75.6,29.87,WSW,244,5.0,19.0,59,0.00,,---,0.00,VWS V12.08,2013-09-14 18:32:00,
2013-09-14 14:37:00,92.2,74.8,29.87,SW,235,4.0,19.0,57,0.00,,---,0.00,VWS V12.08,2013-09-14 18:37:00,
2013-09-14 14:42:00,92.3,74.3,29.87,SW,235,0.0,19.0,56,0.00,,---,0.00,VWS V12.08,2013-09-14 18:42:00,
2013-09-14 14:47:00,92.4,74.4,29.86,SW,235,1.0,19.0,56,0.00,,---,0.00,VWS V12.08,2013-09-14 18:47:00,
2013-09-14 14:52:00,92.2,74.8,29.86,WSW,240,0.0,19.0,57,0.00,,---,0.00,VWS V12.08,2013-09-14 18:52:00,
2013-09-14 14:57:00,91.9,74.0,29.87,WSW,240,2.0,19.0,56,0.00,,---,0.00,VWS V12.08,2013-09-14 18:57:00,
2013-09-14 15:02:00,92.1,74.7,29.86,WSW,240,1.0,19.0,57,0.00,,---,0.00,VWS V12.08,2013-09-14 19:02:00,
2013-09-14 15:07:00,92.1,73.6,29.86,WSW,240,0.0,19.0,55,0.00,,---,0.00,VWS V12.08,2013-09-14 19:07:00,
2013-09-14 15:12:00,92.1,74.7,29.86,WSW,240,0.0,19.0,57,0.00,,---,0.00,VWS V12.08,2013-09-14 19:12:00,
2013-09-14 15:17:00,92.3,73.8,29.86,WSW,240,0.0,19.0,55,0.00,,---,0.00,VWS V12.08,2013-09-14 19:17:00,
2013-09-14 15:22:00,92.5,74.5,29.86,WSW,250,1.0,19.0,56,0.00,,---,0.00,VWS V12.08,2013-09-14 19:22:00,
2013-09-14 15:27:00,92.6,73.5,29.86,WSW,250,0.0,19.0,54,0.00,,---,0.00,VWS V12.08,2013-09-14 19:27:00,
2013-09-14 15:32:00,92.9,73.8,29.85,WSW,250,0.0,19.0,54,0.00,,---,0.00,VWS V12.08,2013-09-14 19:32:00,
2013-09-14 15:37:00,92.7,74.2,29.85,WSW,250,0.0,19.0,55,0.00,,---,0.00,VWS V12.08,2013-09-14 19:37:00,
2013-09-14 15:42:00,92.4,74.4,29.85,WSW,250,0.0,19.0,56,0.00,,---,0.00,VWS V12.08,2013-09-14 19:42:00,
2013-09-14 15:47:00,92.3,74.9,29.85,WSW,250,0.0,19.0,57,0.00,,---,0.00,VWS V12.08,2013-09-14 19:47:00,
2013-09-14 15:52:00,92.6,74.1,29.85,WSW,250,0.0,19.0,55,0.00,,---,0.00,VWS V12.08,2013-09-14 19:52:00,
2013-09-14 15:57:00,92.9,74.4,29.85,WSW,249,1.0,19.0,55,0.00,,---,0.00,VWS V12.08,2013-09-14 19:57:00,
2013-09-14 16:02:00,93.3,73.6,29.85,WSW,249,0.0,19.0,53,0.00,,---,0.00,VWS V12.08,2013-09-14 20:02:00,
2013-09-14 16:07:00,93.4,73.7,29.85,WSW,249,0.0,19.0,53,0.00,,---,0.00,VWS V12.08,2013-09-14 20:07:00,
2013-09-14 16:12:00,93.8,75.2,29.85,WSW,249,4.0,19.0,55,0.00,,---,0.00,VWS V12.08,2013-09-14 20:12:00,
2013-09-14 16:17:00,93.9,74.7,29.85,WSW,249,1.0,19.0,54,0.00,,---,0.00,VWS V12.08,2013-09-14 20:17:00,
2013-09-14 16:22:00,94.1,74.4,29.85,WSW,249,1.0,19.0,53,0.00,,---,0.00,VWS V12.08,2013-09-14 20:22:00,
2013-09-14 16:27:00,94.2,73.9,29.84,WSW,249,2.0,19.0,52,0.00,,---,0.00,VWS V12.08,2013-09-14 20:27:00,
2013-09-14 16:32:00,94.4,75.2,29.85,WSW,249,0.0,19.0,54,0.00,,---,0.00,VWS V12.08,2013-09-14 20:32:00,
2013-09-14 16:37:00,94.0,75.4,29.85,West,263,1.0,19.0,55,0.00,,---,0.00,VWS V12.08,2013-09-14 20:37:00,
2013-09-14 16:42:00,93.3,75.8,29.85,NW,326,6.0,19.0,57,0.00,,---,0.00,VWS V12.08,2013-09-14 20:42:00,
2013-09-14 16:47:00,92.6,76.7,29.85,NNW,342,0.0,19.0,60,0.00,,---,0.00,VWS V12.08,2013-09-14 20:47:00,
2013-09-14 16:52:00,92.2,76.8,29.85,North,5,5.0,19.0,61,0.00,,---,0.00,VWS V12.08,2013-09-14 20:52:00,
2013-09-14 16:57:00,91.6,75.2,29.85,North,5,0.0,19.0,59,0.00,,---,0.00,VWS V12.08,2013-09-14 20:57:00,
2013-09-14 17:02:00,91.2,74.9,29.85,North,5,0.0,19.0,59,0.00,,---,0.00,VWS V12.08,2013-09-14 21:02:00,
2013-09-14 17:07:00,90.8,75.0,29.85,North,5,0.0,19.0,60,0.00,,---,0.00,VWS V12.08,2013-09-14 21:07:00,
2013-09-14 17:12:00,90.4,76.1,29.85,North,5,0.0,19.0,63,0.00,,---,0.00,VWS V12.08,2013-09-14 21:12:00,
2013-09-14 17:17:00,90.2,75.4,29.85,North,5,2.0,19.0,62,0.00,,---,0.00,VWS V12.08,2013-09-14 21:17:00,
2013-09-14 17:22:00,89.9,74.7,29.85,North,5,0.0,19.0,61,0.00,,---,0.00,VWS V12.08,2013-09-14 21:22:00,
2013-09-14 17:27:00,89.7,75.0,29.86,North,5,0.0,19.0,62,0.00,,---,0.00,VWS V12.08,2013-09-14 21:27:00,
2013-09-14 17:32:00,89.6,74.9,29.86,North,5,0.0,19.0,62,0.00,,---,0.00,VWS V12.08,2013-09-14 21:32:00,
2013-09-14 17:37:00,89.7,75.4,29.86,North,5,0.0,19.0,63,0.00,,---,0.00,VWS V12.08,2013-09-14 21:37:00,
2013-09-14 17:42:00,89.8,75.5,29.86,North,5,0.0,19.0,63,0.00,,---,0.00,VWS V12.08,2013-09-14 21:42:00,
2013-09-14 17:47:00,89.6,75.8,29.86,North,5,6.0,19.0,64,0.00,,---,0.00,VWS V12.08,2013-09-14 21:47:00,
2013-09-14 17:52:00,89.1,75.8,29.86,North,5,0.0,19.0,65,0.00,,---,0.00,VWS V12.08,2013-09-14 21:52:00,
2013-09-14 17:57:00,88.7,75.9,29.86,North,5,0.0,19.0,66,0.00,,---,0.00,VWS V12.08,2013-09-14 21:57:00,
2013-09-14 18:02:00,88.5,76.2,29.86,North,5,0.0,19.0,67,0.00,,---,0.00,VWS V12.08,2013-09-14 22:02:00,
2013-09-14 18:07:00,88.3,76.4,29.86,North,5,0.0,19.0,68,0.00,,---,0.00,VWS V12.08,2013-09-14 22:07:00,
2013-09-14 18:12:00,88.2,76.8,29.87,North,5,0.0,19.0,69,0.00,,---,0.00,VWS V12.08,2013-09-14 22:12:00,
2013-09-14 18:17:00,87.9,76.5,29.87,North,5,0.0,19.0,69,0.00,,---,0.00,VWS V12.08,2013-09-14 22:17:00,
2013-09-14 18:22:00,87.6,76.2,29.87,North,5,0.0,19.0,69,0.00,,---,0.00,VWS V12.08,2013-09-14 22:22:00,
2013-09-14 18:27:00,87.4,76.4,29.87,North,5,0.0,19.0,70,0.00,,---,0.00,VWS V12.08,2013-09-14 22:27:00,
2013-09-14 18:32:00,87.2,76.7,29.87,North,5,0.0,19.0,71,0.00,,---,0.00,VWS V12.08,2013-09-14 22:32:00,
2013-09-14 18:37:00,87.0,76.5,29.87,North,5,0.0,19.0,71,0.00,,---,0.00,VWS V12.08,2013-09-14 22:37:00,
2013-09-14 18:42:00,86.8,76.3,29.87,North,5,0.0,19.0,71,0.00,,---,0.00,VWS V12.08,2013-09-14 22:42:00,
2013-09-14 18:47:00,86.7,76.2,29.87,North,5,0.0,19.0,71,0.00,,---,0.00,VWS V12.08,2013-09-14 22:47:00,
2013-09-14 18:49:00,86.6,76.1,29.88,North,5,0.0,19.0,71,0.00,,---,0.00,VWS V12.08,2013-09-14 22:49:00,
2013-09-14 18:54:00,86.5,76.4,29.88,North,5,0.0,19.0,72,0.00,,---,0.00,VWS V12.08,2013-09-14 22:54:00,
2013-09-14 18:59:00,86.3,76.2,29.88,North,5,0.0,19.0,72,0.00,,---,0.00,VWS V12.08,2013-09-14 22:59:00,
2013-09-14 19:04:00,86.1,76.4,29.88,North,5,0.0,19.0,73,0.00,,---,0.00,VWS V12.08,2013-09-14 23:04:00,
2013-09-14 19:09:00,85.9,76.2,29.88,North,5,0.0,19.0,73,0.00,,---,0.00,VWS V12.08,2013-09-14 23:09:00,
2013-09-14 19:14:00,85.7,76.5,29.88,North,5,0.0,19.0,74,0.00,,---,0.00,VWS V12.08,2013-09-14 23:14:00,
2013-09-14 19:19:00,85.6,76.4,29.88,NNE,23,0.0,19.0,74,0.00,,---,0.00,VWS V12.08,2013-09-14 23:19:00,
2013-09-14 19:24:00,85.5,76.7,29.89,NNE,27,4.0,19.0,75,0.00,,---,0.00,VWS V12.08,2013-09-14 23:24:00,
2013-09-14 19:29:00,85.3,76.5,29.89,ESE,108,7.0,19.0,75,0.00,,---,0.00,VWS V12.08,2013-09-14 23:29:00,
2013-09-14 19:34:00,85.0,76.6,29.89,SE,129,6.0,19.0,76,0.00,,---,0.00,VWS V12.08,2013-09-14 23:34:00,
2013-09-14 19:39:00,84.6,76.2,29.90,SE,137,10.0,19.0,76,0.00,,---,0.00,VWS V12.08,2013-09-14 23:39:00,
2013-09-14 19:44:00,84.3,75.9,29.90,ESE,122,8.0,19.0,76,0.00,,---,0.00,VWS V12.08,2013-09-14 23:44:00,
2013-09-14 19:49:00,83.9,75.5,29.90,SE,126,5.0,19.0,76,0.00,,---,0.00,VWS V12.08,2013-09-14 23:49:00,
2013-09-14 19:54:00,83.6,75.2,29.90,ESE,116,4.0,19.0,76,0.00,,---,0.00,VWS V12.08,2013-09-14 23:54:00,
2013-09-14 19:59:00,83.3,74.9,29.90,ESE,114,2.0,19.0,76,0.00,,---,0.00,VWS V12.08,2013-09-14 23:59:00,
2013-09-14 20:04:00,83.1,74.8,29.90,ESE,109,6.0,19.0,76,0.00,,---,0.00,VWS V12.08,2013-09-15 00:04:00,
2013-09-14 20:09:00,82.9,74.6,29.90,ESE,109,0.0,19.0,76,0.00,,---,0.00,VWS V12.08,2013-09-15 00:09:00,
2013-09-14 20:14:00,82.7,74.8,29.90,ESE,108,2.0,19.0,77,0.00,,---,0.00,VWS V12.08,2013-09-15 00:14:00,
2013-09-14 20:19:00,82.5,74.6,29.90,ESE,108,0.0,19.0,77,0.00,,---,0.00,VWS V12.08,2013-09-15 00:19:00,
2013-09-14 20:24:00,82.1,74.6,29.90,ESE,108,0.0,19.0,78,0.00,,---,0.00,VWS V12.08,2013-09-15 00:24:00,
2013-09-14 20:29:00,81.7,74.2,29.91,ESE,108,0.0,19.0,78,0.00,,---,0.00,VWS V12.08,2013-09-15 00:29:00,
2013-09-14 20:34:00,81.5,74.4,29.91,ESE,108,0.0,19.0,79,0.00,,---,0.00,VWS V12.08,2013-09-15 00:34:00,
2013-09-14 20:39:00,81.1,74.3,29.91,ESE,108,0.0,19.0,80,0.00,,---,0.00,VWS V12.08,2013-09-15 00:39:00,
2013-09-14 20:44:00,80.8,74.1,29.91,ESE,108,0.0,19.0,80,0.00,,---,0.00,VWS V12.08,2013-09-15 00:44:00,
2013-09-14 20:49:00,80.6,74.2,29.92,ESE,108,0.0,19.0,81,0.00,,---,0.00,VWS V12.08,2013-09-15 00:49:00,
2013-09-14 20:54:00,80.4,74.0,29.92,ESE,108,0.0,19.0,81,0.00,,---,0.00,VWS V12.08,2013-09-15 00:54:00,
2013-09-14 20:59:00,80.3,73.9,29.92,ESE,108,0.0,19.0,81,0.00,,---,0.00,VWS V12.08,2013-09-15 00:59:00,
2013-09-14 21:04:00,80.1,74.1,29.91,ESE,108,0.0,19.0,82,0.00,,---,0.00,VWS V12.08,2013-09-15 01:04:00,
2013-09-14 21:09:00,80.1,74.1,29.92,ESE,108,0.0,19.0,82,0.00,,---,0.00,VWS V12.08,2013-09-15 01:09:00,
2013-09-14 21:14:00,80.0,74.0,29.92,ESE,108,0.0,19.0,82,0.00,,---,0.00,VWS V12.08,2013-09-15 01:14:00,
2013-09-14 21:19:00,79.6,74.0,29.92,ESE,108,0.0,19.0,83,0.00,,---,0.00,VWS V12.08,2013-09-15 01:19:00,
2013-09-14 21:24:00,79.1,73.8,29.93,ESE,108,0.0,19.0,84,0.00,,---,0.00,VWS V12.08,2013-09-15 01:24:00,
2013-09-14 21:29:00,78.6,73.7,29.93,ESE,108,0.0,19.0,85,0.00,,---,0.00,VWS V12.08,2013-09-15 01:29:00,
2013-09-14 21:34:00,78.2,73.7,29.93,ESE,108,0.0,19.0,86,0.00,,---,0.00,VWS V12.08,2013-09-15 01:34:00,
2013-09-14 21:39:00,78.0,73.5,29.93,ESE,108,0.0,19.0,86,0.00,,---,0.00,VWS V12.08,2013-09-15 01:39:00,
2013-09-14 21:44:00,77.9,73.4,29.93,ESE,108,0.0,19.0,86,0.00,,---,0.00,VWS V12.08,2013-09-15 01:44:00,
2013-09-14 21:49:00,77.8,73.6,29.93,ESE,108,0.0,19.0,87,0.00,,---,0.00,VWS V12.08,2013-09-15 01:49:00,
2013-09-14 21:54:00,77.7,73.5,29.94,ESE,108,0.0,19.0,87,0.00,,---,0.00,VWS V12.08,2013-09-15 01:54:00,
2013-09-14 21:59:00,77.6,73.4,29.94,ESE,108,0.0,19.0,87,0.00,,---,0.00,VWS V12.08,2013-09-15 01:59:00,
2013-09-14 22:04:00,77.5,73.7,29.94,ESE,108,0.0,19.0,88,0.00,,---,0.00,VWS V12.08,2013-09-15 02:04:00,
2013-09-14 22:09:00,77.4,73.6,29.95,ESE,108,0.0,19.0,88,0.00,,---,0.00,VWS V12.08,2013-09-15 02:09:00,
2013-09-14 22:14:00,77.3,73.5,29.95,ESE,108,0.0,19.0,88,0.00,,---,0.00,VWS V12.08,2013-09-15 02:14:00,
2013-09-14 22:19:00,77.3,73.5,29.96,ESE,108,0.0,19.0,88,0.00,,---,0.00,VWS V12.08,2013-09-15 02:19:00,
2013-09-14 22:24:00,77.2,73.7,29.96,ESE,108,0.0,19.0,89,0.00,,---,0.00,VWS V12.08,2013-09-15 02:24:00,
2013-09-14 22:29:00,77.1,73.6,29.96,ESE,108,0.0,19.0,89,0.00,,---,0.00,VWS V12.08,2013-09-15 02:29:00,
2013-09-14 22:34:00,77.1,73.6,29.96,ESE,108,0.0,19.0,89,0.00,,---,0.00,VWS V12.08,2013-09-15 02:34:00,
2013-09-14 22:39:00,77.1,73.9,29.96,ESE,108,0.0,19.0,90,0.00,,---,0.00,VWS V12.08,2013-09-15 02:39:00,
2013-09-14 22:44:00,77.1,73.9,29.96,ESE,108,0.0,19.0,90,0.00,,---,0.00,VWS V12.08,2013-09-15 02:44:00,
2013-09-14 22:49:00,77.2,74.0,29.96,ESE,108,0.0,19.0,90,0.00,,---,0.00,VWS V12.08,2013-09-15 02:49:00,
2013-09-14 22:54:00,77.3,74.1,29.96,ESE,108,0.0,19.0,90,0.00,,---,0.00,VWS V12.08,2013-09-15 02:54:00,
2013-09-14 22:59:00,77.4,74.6,29.96,ESE,108,0.0,19.0,91,0.00,,---,0.00,VWS V12.08,2013-09-15 02:59:00,
2013-09-14 23:04:00,77.5,74.7,29.96,ESE,108,0.0,19.0,91,0.00,,---,0.00,VWS V12.08,2013-09-15 03:04:00,
2013-09-14 23:09:00,77.5,74.7,29.96,ESE,108,0.0,19.0,91,0.00,,---,0.00,VWS V12.08,2013-09-15 03:09:00,
2013-09-14 23:14:00,77.5,74.7,29.96,ESE,108,0.0,19.0,91,0.00,,---,0.00,VWS V12.08,2013-09-15 03:14:00,
2013-09-14 23:19:00,77.5,74.7,29.95,ESE,108,0.0,19.0,91,0.00,,---,0.00,VWS V12.08,2013-09-15 03:19:00,
2013-09-14 23:24:00,77.5,74.7,29.95,ESE,108,0.0,19.0,91,0.00,,---,0.00,VWS V12.08,2013-09-15 03:24:00,
2013-09-14 23:29:00,77.4,74.6,29.95,ESE,108,0.0,19.0,91,0.00,,---,0.00,VWS V12.08,2013-09-15 03:29:00,
2013-09-14 23:34:00,77.4,74.6,29.95,ESE,108,0.0,19.0,91,0.00,,---,0.00,VWS V12.08,2013-09-15 03:34:00,
2013-09-14 23:39:00,77.3,74.5,29.95,ESE,108,0.0,19.0,91,0.00,,---,0.00,VWS V12.08,2013-09-15 03:39:00,
2013-09-14 23:44:00,77.1,74.3,29.95,ESE,108,0.0,19.0,91,0.00,,---,0.00,VWS V12.08,2013-09-15 03:44:00,
2013-09-14 23:49:00,77.0,74.2,29.95,ESE,108,0.0,19.0,91,0.00,,---,0.00,VWS V12.08,2013-09-15 03:49:00,
2013-09-14 23:54:00,76.9,74.1,29.95,ESE,108,0.0,19.0,91,0.00,,---,0.00,VWS V12.08,2013-09-15 03:54:00,
2013-09-14 23:59:00,76.8,74.0,29.96,ESE,108,0.0,19.0,91,0.00,,---,0.00,VWS V12.08,2013-09-15 03:59:00,